Location: Newark
(44.6768°N, 22.5302°E)
Time: 22:18:37
(UTC+00:00)

NOAA 18 - Visible Passes

Search period start: 28 June 2022 00:00
Search period end: 08 July 2022 00:00
Orbit: 840 x 859 km, 98.9° (Epoch: 28 June)

Date Brightness Start Highest point End Pass type
(mag) Time Alt. Az. Time Alt. Az. Time Alt. Az.
28 Jun 5.3 19:51:14 17° SSE 19:55:34 73° ENE 20:01:06 10° N visible
28 Jun 7.3 21:33:23 10° SW 21:36:47 17° W 21:40:14 10° NW visible
29 Jun 5.5 19:39:03 15° SE 19:43:34 58° ENE 19:49:00 10° N visible
29 Jun 7.1 21:21:02 12° SW 21:24:35 21° W 21:28:43 10° NW visible
30 Jun 5.7 19:26:51 13° SE 19:31:35 46° ENE 19:36:51 10° N visible
30 Jun 6.8 21:08:50 14° SW 21:12:26 27° W 21:17:03 10° NW visible
01 Jul 6.0 19:14:40 10° SE 19:19:37 37° ENE 19:24:40 10° N visible
01 Jul 6.5 20:56:39 16° SSW 21:00:17 33° W 21:05:16 10° NNW visible
02 Jul 6.3 19:02:57 10° ESE 19:07:41 30° ENE 19:12:26 10° N visible
02 Jul 6.1 20:44:28 18° SSW 20:48:10 42° W 20:53:25 10° NNW visible
03 Jul 6.6 18:51:23 10° ESE 18:55:45 25° ENE 19:00:09 10° N visible
03 Jul 5.7 20:32:17 19° S 20:36:03 53° W 20:41:30 10° NNW visible
04 Jul 5.4 20:20:06 20° S 20:23:59 68° WSW 20:29:31 10° NNW visible
05 Jul 5.2 20:07:55 19° SSE 20:11:55 84° WSW 20:17:31 10° NNW visible
05 Jul 7.6 21:51:28 10° WSW 21:53:24 12° W 21:55:20 10° WNW visible
06 Jul 5.2 19:55:44 18° SSE 19:59:53 78° ENE 20:05:28 10° NNW visible
06 Jul 7.4 21:38:00 10° SW 21:41:11 15° W 21:44:21 10° NW visible
07 Jul 5.4 19:43:33 16° SSE 19:47:53 63° ENE 19:53:22 10° N visible
07 Jul 7.2 21:25:32 12° SW 21:28:58 20° W 21:32:56 10° NW visible
